CDT,Max TemperatureF,Mean TemperatureF,Min TemperatureF,Max Dew PointF,MeanDew PointF,Min DewpointF,Max Humidity, Mean Humidity, Min Humidity, Max Sea Level PressureIn, Mean Sea Level PressureIn, Min Sea Level PressureIn, Max VisibilityMiles, Mean VisibilityMiles, Min VisibilityMiles, Max Wind SpeedMPH, Mean Wind SpeedMPH, Max Gust SpeedMPH,PrecipitationIn, CloudCover, Events, WindDirDegrees
2013-10-1,87,69,51,64,58,52,100,79,40,29.92,29.86,29.82,10,10,10,23,6,25,0.00,0,,148
2013-10-2,86,75,64,72,66,63,100,84,55,29.95,29.90,29.82,10,7,0,21,9,33,0.00,3,Fog,148
2013-10-3,91,80,69,73,68,64,100,65,43,29.80,29.75,29.68,10,10,7,29,21,37,0.00,2,,155
2013-10-4,89,74,59,70,63,50,88,67,43,29.97,29.79,29.72,10,10,2,25,19,33,0.19,3,Rain-Thunderstorm,168
2013-10-5,69,58,46,46,38,32,87,58,26,30.15,30.05,29.96,10,10,10,23,17,34,0.00,5,Thunderstorm,327
2013-10-6,73,58,44,41,35,28,87,55,21,30.10,30.06,30.02,10,10,10,23,10,29,0.00,0,,297
2013-10-7,77,60,42,45,40,37,87,66,24,30.20,30.11,30.07,10,10,10,14,5,,0.00,0,,345
2013-10-8,78,61,44,50,46,41,93,73,28,30.09,30.03,29.95,10,10,10,21,6,26,0.00,0,,147
2013-10-9,82,66,50,54,51,48,100,77,34,30.02,29.97,29.93,10,10,10,21,9,29,0.00,1,,150
2013-10-10,82,68,53,59,55,52,100,75,42,29.99,29.92,29.79,10,10,10,22,10,30,0.00,0,,148
2013-10-11,87,71,53,63,51,36,83,62,17,29.86,29.79,29.73,10,10,10,23,12,30,0.00,0,,166
2013-10-12,75,62,50,46,44,41,82,64,31,30.18,30.04,29.87,10,10,10,18,12,26,0.00,0,,14
2013-10-13,69,58,48,59,50,45,87,75,59,30.29,30.21,30.16,10,10,10,16,8,18,0.00,6,,40
2013-10-14,68,65,62,68,63,57,100,93,77,30.15,30.00,29.84,10,9,3,24,11,32,0.00,6,Rain,140
2013-10-15,69,58,46,68,47,39,100,80,45,30.14,30.04,29.85,10,10,2,23,13,30,0.19,4,Rain,339
2013-10-16,51,46,41,43,40,37,100,84,62,30.18,30.13,30.07,10,10,10,14,8,,0.00,2,,319
2013-10-17,69,52,35,45,40,36,100,81,31,30.07,30.03,29.96,10,10,7,9,3,,0.00,2,,239
2013-10-18,46,40,33,43,40,32,100,89,76,30.19,30.09,30.02,10,9,4,23,9,31,0.00,4,Rain,3
2013-10-19,68,49,30,43,36,30,100,86,33,30.18,30.08,29.97,10,10,7,15,4,21,0.00,0,,208
2013-10-20,73,55,37,50,42,36,94,77,38,29.98,29.91,29.79,10,10,10,21,7,31,0.00,1,,173
2013-10-21,62,52,39,46,41,36,100,77,37,30.15,30.04,29.92,10,10,2,20,6,26,0.00,2,,1
2013-10-22,77,56,35,45,39,36,100,78,28,30.09,30.06,30.01,10,10,10,16,6,22,0.00,1,,224
2013-10-23,71,56,41,48,42,37,93,77,38,30.16,30.09,29.99,10,10,10,17,5,,0.00,0,,44
2013-10-24,59,50,41,43,38,32,93,75,39,30.40,30.26,30.09,10,10,3,18,8,25,0.00,0,,25
2013-10-25,59,48,37,43,36,32,87,71,47,30.44,30.34,30.17,10,10,7,21,9,21,0.00,2,,115
2013-10-26,68,55,41,55,45,34,94,78,63,30.17,30.14,30.10,10,9,7,17,8,130,0.00,2,Rain,219
2013-10-27,68,50,33,37,34,32,93,73,26,30.17,30.07,29.94,10,10,10,12,7,,0.00,0,,318
2013-10-28,66,54,41,61,54,36,100,89,77,30.06,29.99,29.96,10,8,3,20,10,24,0.00,7,,156
2013-10-29,77,70,62,68,63,59,94,86,69,29.97,29.94,29.90,10,9,7,18,13,26,0.00,8,Rain,162
2013-10-30,78,66,55,68,65,55,100,87,65,29.92,29.82,29.68,10,9,1,25,16,34,0.53,8,Rain-Thunderstorm,163
2013-10-31,68,57,46,57,50,41,100,87,43,29.93,29.69,29.59,10,8,0,23,10,32,0.42,4,Fog-Rain-Thunderstorm,323